Regional Weather Roundup
Issued by NWS

Home | Current Version | Previous Version | Graphics & Text | Print | Product List | Glossary On
Versions: 1 2 3 4 5 6 7 8 9 10 11 12 13 14 15 16 17 18 19 20 21 22 23 24 25 26 27 28 29 30 31 32 33 34 35 36 37 38 39 40 41 42 43 44 45 46 47 48 49 50
000
ASUS44 KMEG 170300
RWRTN
TENNESSEE HOURLY STATE WEATHER ROUNDUP
NATIONAL WEATHER SERVICE MEMPHIS TN
900 PM CST MON JAN 16 2017

TNZ002-004-019-021-049-052-054-088>092-170400-
WEST TENNESSEE

CITY           SKY/WX    TMP DP  RH WIND       PRES   REMARKS
MEMPHIS INTL   CLOUDY    67  61  81 S23       29.96F
NWS MEMPHIS      N/A     67 N/A N/A MISG        N/A
JACKSON        LGT RAIN  64  62  93 S10G18    30.00F
DYERSBURG      CLOUDY    63  61  94 S12       29.97S
UNION CITY     CLOUDY   N/A N/A N/A CALM      29.96F
PARIS          CLOUDY    59  59 100 SE13      30.02R
$$

TNZ008-025-027-028-033-062-065-066-170400-
NORTH MIDDLE TENNESSEE

CITY           SKY/WX    TMP DP  RH WIND       PRES   REMARKS
NASHVILLE      RAIN      62  55  77 S9        30.09S
CLARKSVILLE    CLOUDY    63  56  78 S14G22    30.02F
SMYRNA         LGT RAIN  62  54  74 S7        30.10F
CROSSVILLE     CLOUDY    58  52  80 VRB7G17   30.18S
$$

TNZ061-075-076-078-094-096-097-170400-
SOUTH MIDDLE TENNESSEE

CITY           SKY/WX    TMP DP  RH WIND       PRES   REMARKS
TULLAHOMA      MOCLDY    64  48  55 S10       30.14F
WINCHESTER     MOCLDY    63  50  63 S9        30.14F
COLUMBIA       CLOUDY    63  63 100 S12       30.07F
SHELBYVILLE    CLOUDY    66  54  63 S10       30.12F
$$

TNZ017-018-042-046-047-170400-
NORTHEAST TENNESSEE

CITY           SKY/WX    TMP DP  RH WIND       PRES   REMARKS
TRI CITIES     MOCLDY    55  49  80 CALM      30.21F
$$

TNZ012-013-036-069-073-074-170400-
CENTRAL EAST TENNESSEE

CITY           SKY/WX    TMP DP  RH WIND       PRES   REMARKS
KNOXVILLE      MOCLDY    56  54  93 CALM      30.18F
GATLINBURG       N/A     52  50  93 CALM      30.19F VSB 1
$$

TNZ083-085-099-170400-
SOUTHEAST TENNESSEE

CITY           SKY/WX    TMP DP  RH WIND       PRES   REMARKS
CHATTANOOGA    MOCLDY    60  53  77 S5        30.20S
$$

SKY/WX REPORTED AS FAIR MEANS FEW OR NO CLOUDS BELOW
12 THOUSAND FEET.





USA.gov is the U.S. government's official web portal to all federal, state and local government web resources and services.